Location: Antioch
(38.0049°N, 121.8058°W)
Time: 23:07:13
(UTC+00:00)

Cosmos 1354 Rocket - Pass Details

Date: 18 May 2026
Orbit: 761 x 778 km, 74.0° (Epoch: 7 June)

Event Time Altitude Azimuth Distance (km) Brightness Sun altitude
Rises 06:51:13 0° 330° (NNW) 3,234 8.4 -30.0°
Reaches altitude 10° 06:53:49 10° 320° (NW) 2,302 7.3 -30.1°
Enters shadow 06:57:43 30° 274° (W) 1,354 5.4 -30.4°
